This is the latest recevied weather packets stored in our database for station/object WB3IGR. If no packets are shown the sender has not sent any weather packets the latest 10 day(s).
| Time | Temp. | Humidity | Pressure | Rain* | Wind** | Luminosity | Snow |
|---|---|---|---|---|---|---|---|
| 1778244923 | 11.11° C | 67% | 1015.8 hPa | 0 mm | - | 194 W/m² | - |
| 1778244621 | 11.67° C | 68% | 1016 hPa | 0 mm | - | 174 W/m² | - |
| 1778244319 | 11.11° C | 70% | 1015.7 hPa | 0 mm | - | 411 W/m² | - |
| 1778244016 | 11.11° C | 70% | 1015.7 hPa | 0 mm | - | 157 W/m² | - |
| 1778243714 | 11.11° C | 69% | 1015.6 hPa | 0 mm | - | 130 W/m² | - |
| 1778243411 | 11.11° C | 70% | 1015.6 hPa | 0 mm | - | 134 W/m² | - |
| 1778243108 | 11.11° C | 70% | 1015.7 hPa | 0 mm | - | 154 W/m² | - |
| 1778242804 | 11.11° C | 69% | 1015.6 hPa | 0 mm | - | 156 W/m² | - |
| 1778242503 | 11.11° C | 70% | 1015.8 hPa | 0 mm | - | 153 W/m² | - |
| 1778242200 | 11.11° C | 69% | 1015.8 hPa | 0 mm | - | 154 W/m² | - |
| 1778241897 | 11.11° C | 71% | 1015.6 hPa | 0 mm | - | 248 W/m² | - |
| 1778241595 | 11.11° C | 70% | 1015.7 hPa | 0 mm | - | 203 W/m² | - |
| 1778241293 | 10.56° C | 71% | 1015.6 hPa | 0 mm | - | 143 W/m² | - |
| 1778240989 | 10.56° C | 73% | 1015.4 hPa | 0 mm | - | 215 W/m² | - |
| 1778240686 | 10.56° C | 74% | 1015.6 hPa | 0 mm | - | 156 W/m² | - |
| 1778240383 | 9.44° C | 77% | 1015.6 hPa | 0 mm | - | 159 W/m² | - |
| 1778240080 | 9.44° C | 80% | 1015.6 hPa | 0 mm | - | 73 W/m² | - |
| 1778239778 | 8.89° C | 84% | 1015.7 hPa | 0 mm | - | 112 W/m² | - |
| 1778239474 | 8.33° C | 86% | 1015.6 hPa | 0 mm | - | 94 W/m² | - |
| 1778239171 | 7.78° C | 87% | 1015.5 hPa | 0 mm | - | 85 W/m² | - |
| 1778238868 | 7.78° C | 88% | 1015.4 hPa | 0 mm | - | 75 W/m² | - |
| 1778238565 | 7.22° C | 89% | 1015.5 hPa | 0 mm | - | 44 W/m² | - |
| 1778238263 | 6.67° C | 90% | 1015.8 hPa | 0 mm | - | 40 W/m² | - |
| 1778237962 | 6.67° C | 90% | 1015.5 hPa | 0 mm | - | 35 W/m² | - |
| 1778237659 | 6.67° C | 91% | 1015.2 hPa | 0 mm | - | 33 W/m² | - |
* Rain latest hour (hover to see other rain measurements)
** Current wind speed in m/s (hover to see current wind gust speed)